Tracking 19279 objects as of 13-Nov-2018
HD Live streaming from Space Station
objects crossing your sky now

METOP-C

Track METOP-C now!
10-day predictions


NORAD ID: 43689
Int'l Code: 2018-087A
Perigee: 813.1 km
Apogee: 814.3 km
Inclination: 98.7 °
Period: 101.0 minutes
Semi major axis: 7184 km
RCS: Unknown
Launch date: November 7, 2018
Source: European Organisation for the Exploitation of Meteorological Satellites (EUME)
Launch site: FRENCH GUIANA (FRGUI)
aabbcc
Your satellite tracking list
Your tracking list is empty




NASA's NSSDC Master Catalog

Two Line Element Set (TLE):
1 43689U 18087A   18316.29675514 -.00000044  00000-0  00000+0 0  9990
2 43689  98.7345  13.5590 0000818 268.2346  91.8740 14.25578239   745
Source of the keplerian elements: AFSPC